ROMMA est une association bénévole à but non lucratif. Votre soutien est indispensable : ADHERER à ROMMA ou FAIRE un DON

Voiron - (38, Isère)

Voironnais (300 m)   Longitude: 05° 35' E   Latitude: 45° 23' N Station partenaire n°109
 

Détail journalier du     <<     >>

Température Precipitation Humidité Pression Vent Dir Rafale Dir. rafale Ensol.
Heure (°C) (mm) (%) (hPa) (km/h) (km/h) (min)
01:00 13.62.49610152ENE11SSO0
02:00 13.73.29610152S13SE0
03:00 13.319510152NNE10S0
04:00 13.10.29110126NNE19NNE0
05:00 12.809010127O29SO0
06:00 11.909310121ENE8NNE0
07:00 11.709410121NO5NO0
08:00 11.409510131NO6NNO0
09:00 12.1095101303NNO0
10:00 13.1094101403NE0
11:00 14.908710153E16NO0
12:00 14.908610165O18NO0
13:00 15.808110162SE8SSE0
14:00 16.208110154SE11ESE0
15:00 16.707810155ESE13SE0
16:00 17.207610156ESE13ESE0
17:00 17.707410153ESE11SSE60
18:00 17.207710165ESE13E60
19:00 16.108310161SSE10ESE0
20:00 14.308710172NNO10NNO0
21:00 13.208910181NNO6NNO0
22:00 12.209210191NNO5NNO0
23:00 11.6093101903NNO0
minuit 11.209310201E5NNO0

Graphique du 24-10-2019

 

Serveur OMMA